RYN1224 EHAM-EGKK

Flight info

Callsign RYN1224
Flight time N/A
Altitude 24000
Route IDRID L980 ABNED Z344 AMRIV Q63 ARREK Y4 TEBRA
Aircraft B38M/M-SDE1FGHILORVWXY/HB1

Departure

Time 2026-05-06 21:33
Airport Amsterdam Airport Schiphol (EHAM)

Arrival

Time N/A
Airport London Gatwick Airport (EGKK)
Time Latitude Longitude Altitude Speed Heading
2026-05-06 21:19 52.30886 4.77303 0 ft 0 kts
2026-05-06 21:21 52.30875 4.77301 0 ft 0 kts 44°
2026-05-06 21:21 52.30875 4.77302 0 ft 0 kts 51°
2026-05-06 21:21 52.30877 4.77318 0 ft 2 kts 89°
2026-05-06 21:22 52.30866 4.77345 1 ft 5 kts 125°
2026-05-06 21:22 52.30853 4.77440 0 ft 9 kts 66°
2026-05-06 21:22 52.30906 4.77473 0 ft 13 kts
2026-05-06 21:22 52.31034 4.77487 0 ft 21 kts
2026-05-06 21:23 52.31185 4.77498 0 ft 23 kts
2026-05-06 21:23 52.31310 4.77398 0 ft 17 kts 330°
2026-05-06 21:23 52.31414 4.77281 0 ft 18 kts 313°
2026-05-06 21:23 52.31480 4.77115 0 ft 16 kts 279°
2026-05-06 21:24 52.31479 4.76941 0 ft 15 kts 265°
2026-05-06 21:24 52.31471 4.76763 0 ft 16 kts 266°
2026-05-06 21:24 52.31464 4.76583 0 ft 16 kts 266°
2026-05-06 21:24 52.31458 4.76401 0 ft 16 kts 267°
2026-05-06 21:25 52.31453 4.76216 0 ft 16 kts 267°
2026-05-06 21:25 52.31448 4.76027 0 ft 17 kts 267°
2026-05-06 21:25 52.31442 4.75835 0 ft 17 kts 267°
2026-05-06 21:25 52.31436 4.75643 0 ft 17 kts 267°
2026-05-06 21:26 52.31423 4.75451 0 ft 17 kts 263°
2026-05-06 21:26 52.31416 4.75259 0 ft 17 kts 268°
2026-05-06 21:26 52.31412 4.75063 0 ft 17 kts 269°
2026-05-06 21:26 52.31409 4.74865 0 ft 17 kts 268°
2026-05-06 21:27 52.31432 4.74689 1 ft 14 kts 315°
2026-05-06 21:27 52.31476 4.74575 1 ft 11 kts 271°
2026-05-06 21:27 52.31477 4.74435 0 ft 15 kts 269°
2026-05-06 21:27 52.31479 4.74230 2 ft 20 kts 290°
2026-05-06 21:28 52.31603 4.74157 0 ft 21 kts
2026-05-06 21:28 52.31755 4.74174 0 ft 23 kts
2026-05-06 21:28 52.31923 4.74194 0 ft 25 kts
2026-05-06 21:28 52.32037 4.74026 -1 ft 25 kts 277°
2026-05-06 21:29 52.32048 4.73723 0 ft 28 kts 273°
2026-05-06 21:29 52.32077 4.73400 0 ft 29 kts 298°
2026-05-06 21:29 52.32222 4.73167 0 ft 30 kts 318°
2026-05-06 21:29 52.32385 4.72941 0 ft 31 kts 318°
2026-05-06 21:30 52.32552 4.72704 0 ft 33 kts 320°
2026-05-06 21:30 52.32720 4.72445 0 ft 34 kts 312°
2026-05-06 21:30 52.32829 4.72125 1 ft 32 kts 268°
2026-05-06 21:30 52.32859 4.71900 -19 ft 11 kts 310°
2026-05-06 21:31 52.32927 4.71794 0 ft 23 kts 317°
2026-05-06 21:31 52.33084 4.71513 0 ft 37 kts 312°
2026-05-06 21:31 52.33245 4.71215 0 ft 33 kts 312°
2026-05-06 21:31 52.33405 4.70979 -1 ft 29 kts 340°
2026-05-06 21:32 52.33624 4.70965 1 ft 50 kts
2026-05-06 21:32 52.35091 4.71100 218 ft 140 kts
2026-05-06 21:32 52.36183 4.71194 366 ft 179 kts
2026-05-06 21:33 52.37554 4.71351 550 ft 219 kts
2026-05-06 21:33 52.39139 4.71509 1378 ft 233 kts
2026-05-06 21:33 52.40789 4.71668 2439 ft 241 kts
2026-05-06 21:33 52.42489 4.71832 3490 ft 248 kts
2026-05-06 21:34 52.44220 4.72000 4581 ft 250 kts
2026-05-06 21:34 52.45967 4.72170 5672 ft 253 kts
2026-05-06 21:34 52.47751 4.72344 6628 ft 259 kts
2026-05-06 21:34 52.49577 4.72522 7514 ft 266 kts
2026-05-06 21:35 52.51443 4.72704 8437 ft 271 kts
2026-05-06 21:35 52.53353 4.72890 9372 ft 278 kts
2026-05-06 21:35 52.55303 4.72947 10259 ft 283 kts 351°
2026-05-06 21:35 52.57144 4.71804 11131 ft 285 kts 324°
2026-05-06 21:36 52.58488 4.69495 11789 ft 287 kts 299°
2026-05-06 21:36 52.59093 4.66378 11983 ft 288 kts 274°
2026-05-06 21:36 52.59129 4.63085 11981 ft 288 kts 269°
2026-05-06 21:36 52.59081 4.59777 11986 ft 290 kts 267°
2026-05-06 21:37 52.58646 4.56592 12008 ft 287 kts 245°
2026-05-06 21:37 52.57461 4.53965 12002 ft 292 kts 222°
2026-05-06 21:37 52.55707 4.52264 11995 ft 295 kts 206°
2026-05-06 21:37 52.53812 4.50954 11987 ft 296 kts 204°
2026-05-06 21:38 52.51891 4.49691 11988 ft 296 kts 203°
2026-05-06 21:38 52.49945 4.48364 12046 ft 323 kts 204°
2026-05-06 21:38 52.47767 4.46851 12130 ft 356 kts 204°
2026-05-06 21:38 52.45384 4.45213 12262 ft 384 kts 204°
2026-05-06 21:39 52.42875 4.43499 12762 ft 397 kts 206°
2026-05-06 21:39 52.40525 4.41063 13402 ft 403 kts 221°
2026-05-06 21:39 52.38668 4.37625 14067 ft 406 kts 237°
2026-05-06 21:39 52.37270 4.33590 14707 ft 408 kts 243°
2026-05-06 21:40 52.35961 4.29522 15320 ft 412 kts 243°
2026-05-06 21:40 52.34665 4.25474 15934 ft 415 kts 243°
2026-05-06 21:40 52.33346 4.21461 16585 ft 417 kts 242°
2026-05-06 21:40 52.31934 4.17214 17254 ft 421 kts 242°
2026-05-06 21:41 52.30324 4.13305 17889 ft 425 kts 233°
2026-05-06 21:41 52.28518 4.09546 18488 ft 428 kts 233°
2026-05-06 21:41 52.26794 4.05930 19003 ft 431 kts 233°
2026-05-06 21:41 52.24939 4.02032 19540 ft 434 kts 233°
2026-05-06 21:42 52.23134 3.98256 20075 ft 437 kts 233°
2026-05-06 21:42 52.21204 3.94410 20589 ft 439 kts 230°
2026-05-06 21:42 52.19342 3.90501 21402 ft 432 kts 236°
2026-05-06 21:42 52.17638 3.86558 22590 ft 418 kts 236°
2026-05-06 21:43 52.16001 3.82744 23560 ft 408 kts 236°
2026-05-06 21:43 52.14367 3.78921 23765 ft 416 kts 236°
2026-05-06 21:43 52.12682 3.74966 23397 ft 436 kts 236°
2026-05-06 21:43 52.10949 3.70888 22913 ft 441 kts 236°
2026-05-06 21:44 52.09194 3.66758 22499 ft 442 kts 236°
2026-05-06 21:44 52.07451 3.62664 22258 ft 440 kts 236°
2026-05-06 21:44 52.05598 3.58708 22373 ft 442 kts 229°
2026-05-06 21:44 52.03410 3.55182 22606 ft 444 kts 225°
2026-05-06 21:45 52.01121 3.51800 22873 ft 445 kts 224°
2026-05-06 21:45 51.98947 3.48223 23119 ft 444 kts 232°
2026-05-06 21:45 51.97083 3.44230 23358 ft 445 kts 235°
2026-05-06 21:45 51.95326 3.40104 23604 ft 447 kts 236°
2026-05-06 21:46 51.93516 3.35977 23812 ft 448 kts 234°
2026-05-06 21:46 51.92285 3.33320 23947 ft 449 kts 234°
2026-05-06 21:46 51.89780 3.27940 23981 ft 441 kts 234°
2026-05-06 21:46 51.88580 3.25281 23991 ft 443 kts 235°
2026-05-06 21:47 51.86778 3.21246 23980 ft 445 kts 235°
2026-05-06 21:47 51.84982 3.17202 23979 ft 441 kts 238°
2026-05-06 21:47 51.83541 3.12838 23988 ft 442 kts 244°
2026-05-06 21:47 51.82141 3.08373 23995 ft 445 kts 244°
2026-05-06 21:48 51.80741 3.03940 23996 ft 440 kts 243°
2026-05-06 21:48 51.79345 2.99546 23997 ft 442 kts 243°
2026-05-06 21:48 51.77939 2.95119 23999 ft 444 kts 243°
2026-05-06 21:48 51.76547 2.90734 23993 ft 442 kts 243°
2026-05-06 21:49 51.75146 2.86330 23992 ft 445 kts 243°
2026-05-06 21:49 51.73721 2.81863 23993 ft 446 kts 243°
2026-05-06 21:49 51.72303 2.77434 23992 ft 444 kts 243°
2026-05-06 21:49 51.70886 2.73006 23993 ft 445 kts 243°
2026-05-06 21:50 51.69468 2.68562 23999 ft 447 kts 245°
2026-05-06 21:50 51.68551 2.63842 24014 ft 443 kts 260°
2026-05-06 21:50 51.68110 2.58913 24007 ft 444 kts 263°
2026-05-06 21:50 51.67742 2.53960 24004 ft 445 kts 263°
2026-05-06 21:51 51.67314 2.49072 24005 ft 445 kts 261°
2026-05-06 21:51 51.66825 2.44158 24008 ft 443 kts 261°
2026-05-06 21:51 51.66359 2.39249 24006 ft 446 kts 262°